Year,Month,Day,Hour,Minute,Value (Times are PST for temperature in C)
2010,08,06,00,00,19.30
2010,08,06,00,01,19.20
2010,08,06,00,02,19.20
2010,08,06,00,03,19.20
2010,08,06,00,04,19.20
2010,08,06,00,05,19.20
2010,08,06,00,06,19.20
2010,08,06,00,07,19.10
2010,08,06,00,08,19.10
2010,08,06,00,09,19.10
2010,08,06,00,10,19.00
2010,08,06,00,11,19.00
2010,08,06,00,12,19.00
2010,08,06,00,13,18.90
2010,08,06,00,14,18.90
2010,08,06,00,15,18.90
2010,08,06,00,16,18.90
2010,08,06,00,17,18.80
2010,08,06,00,18,18.80
2010,08,06,00,19,18.80
2010,08,06,00,20,18.80
2010,08,06,00,21,18.80
2010,08,06,00,22,18.80
2010,08,06,00,23,18.80
2010,08,06,00,24,18.70
2010,08,06,00,25,18.70
2010,08,06,00,26,18.70
2010,08,06,00,27,18.70
2010,08,06,00,28,18.60
2010,08,06,00,29,18.60
2010,08,06,00,30,18.60
2010,08,06,00,31,18.50
2010,08,06,00,32,18.50
2010,08,06,00,33,18.40
2010,08,06,00,34,18.40
2010,08,06,00,35,18.40
2010,08,06,00,36,18.40
2010,08,06,00,37,18.40
2010,08,06,00,38,18.40
2010,08,06,00,39,18.40
2010,08,06,00,40,18.40
2010,08,06,00,41,18.40
2010,08,06,00,42,18.40
2010,08,06,00,43,18.40
2010,08,06,00,44,18.40
2010,08,06,00,45,18.40
2010,08,06,00,46,18.40
2010,08,06,00,47,18.40
2010,08,06,00,48,18.40
2010,08,06,00,49,18.40
2010,08,06,00,50,18.40
2010,08,06,00,51,18.40
2010,08,06,00,52,18.30
2010,08,06,00,53,18.30
2010,08,06,00,54,18.30
2010,08,06,00,55,18.30
2010,08,06,00,56,18.30
2010,08,06,00,57,18.30
2010,08,06,00,58,18.20
2010,08,06,00,59,18.20
2010,08,06,01,00,18.20
2010,08,06,01,01,18.10
2010,08,06,01,02,18.10
2010,08,06,01,03,18.10
2010,08,06,01,04,18.00
2010,08,06,01,05,18.00
2010,08,06,01,06,17.90
2010,08,06,01,07,17.90
2010,08,06,01,08,17.90
2010,08,06,01,09,17.90
2010,08,06,01,10,17.90
2010,08,06,01,11,17.80
2010,08,06,01,12,17.80
2010,08,06,01,13,17.80
2010,08,06,01,14,17.80
2010,08,06,01,15,17.80
2010,08,06,01,16,17.80
2010,08,06,01,17,17.80
2010,08,06,01,18,17.80
2010,08,06,01,19,17.80
2010,08,06,01,20,17.80
2010,08,06,01,21,17.80
2010,08,06,01,22,17.70
2010,08,06,01,23,17.70
2010,08,06,01,24,17.70
2010,08,06,01,25,17.70
2010,08,06,01,26,17.80
2010,08,06,01,27,17.80
2010,08,06,01,28,17.80
2010,08,06,01,29,17.80
2010,08,06,01,30,17.80
2010,08,06,01,31,17.80
2010,08,06,01,32,17.80
2010,08,06,01,33,17.80
2010,08,06,01,34,17.80
2010,08,06,01,35,17.80
2010,08,06,01,36,17.80
2010,08,06,01,37,17.80
2010,08,06,01,38,17.80
2010,08,06,01,39,17.90
2010,08,06,01,40,17.90
2010,08,06,01,41,17.90
2010,08,06,01,42,17.90
2010,08,06,01,43,17.90
2010,08,06,01,44,17.90
2010,08,06,01,45,18.00
2010,08,06,01,46,18.00
2010,08,06,01,47,18.00
2010,08,06,01,48,18.10
2010,08,06,01,49,18.10
2010,08,06,01,50,18.10
2010,08,06,01,51,18.10
2010,08,06,01,52,18.10
2010,08,06,01,53,18.10
2010,08,06,01,54,18.10
2010,08,06,01,55,18.10
2010,08,06,01,56,18.10
2010,08,06,01,57,18.10
2010,08,06,01,58,18.10
2010,08,06,01,59,18.10
2010,08,06,02,00,18.10
2010,08,06,02,01,18.00
2010,08,06,02,02,18.00
2010,08,06,02,03,18.00
2010,08,06,02,04,17.90
2010,08,06,02,05,17.90
2010,08,06,02,06,17.90
2010,08,06,02,07,17.90
2010,08,06,02,08,17.80
2010,08,06,02,09,17.80
2010,08,06,02,10,17.70
2010,08,06,02,11,17.70
2010,08,06,02,12,17.60
2010,08,06,02,13,17.60
2010,08,06,02,14,17.50
2010,08,06,02,15,17.50
2010,08,06,02,16,17.40
2010,08,06,02,17,17.40
2010,08,06,02,18,17.40
2010,08,06,02,19,17.30
2010,08,06,02,20,17.30
2010,08,06,02,21,17.30
2010,08,06,02,22,17.20
2010,08,06,02,23,17.20
2010,08,06,02,24,17.20
2010,08,06,02,25,17.20
2010,08,06,02,26,17.10
2010,08,06,02,27,17.10
2010,08,06,02,28,17.10
2010,08,06,02,29,17.10
2010,08,06,02,30,17.10
2010,08,06,02,31,17.10
2010,08,06,02,32,17.10
2010,08,06,02,33,17.10
2010,08,06,02,34,17.10
2010,08,06,02,35,17.10
2010,08,06,02,36,17.00
2010,08,06,02,37,17.00
2010,08,06,02,38,17.00
2010,08,06,02,39,17.00
2010,08,06,02,40,17.00
2010,08,06,02,41,17.00
2010,08,06,02,42,16.90
2010,08,06,02,43,16.90
2010,08,06,02,44,16.90
2010,08,06,02,45,16.90
2010,08,06,02,46,16.90
2010,08,06,02,47,16.90
2010,08,06,02,48,16.90
2010,08,06,02,49,16.80
2010,08,06,02,50,16.80
2010,08,06,02,51,16.80
2010,08,06,02,52,16.80
2010,08,06,02,53,16.80
2010,08,06,02,54,16.80
2010,08,06,02,55,16.80
2010,08,06,02,56,16.80
2010,08,06,02,57,16.80
2010,08,06,02,58,16.70
2010,08,06,02,59,16.70
2010,08,06,03,00,16.70
2010,08,06,03,01,16.70
2010,08,06,03,02,16.70
2010,08,06,03,03,16.70
2010,08,06,03,04,16.70
2010,08,06,03,05,16.70
2010,08,06,03,06,16.70
2010,08,06,03,07,16.70
2010,08,06,03,08,16.70
2010,08,06,03,09,16.70
2010,08,06,03,10,16.70
2010,08,06,03,11,16.70
2010,08,06,03,12,16.70
2010,08,06,03,13,16.70
2010,08,06,03,14,16.70
2010,08,06,03,15,16.70
2010,08,06,03,16,16.70
2010,08,06,03,17,16.70
2010,08,06,03,18,16.70
2010,08,06,03,19,16.70
2010,08,06,03,20,16.70
2010,08,06,03,21,16.70
2010,08,06,03,22,16.70
2010,08,06,03,23,16.70
2010,08,06,03,24,16.60
2010,08,06,03,25,16.60
2010,08,06,03,26,16.60
2010,08,06,03,27,16.60
2010,08,06,03,28,16.60
2010,08,06,03,29,16.60
2010,08,06,03,30,16.60
2010,08,06,03,31,16.60
2010,08,06,03,32,16.50
2010,08,06,03,33,16.50
2010,08,06,03,34,16.40
2010,08,06,03,35,16.40
2010,08,06,03,36,16.40
2010,08,06,03,37,16.40
2010,08,06,03,38,16.30
2010,08,06,03,39,16.30
2010,08,06,03,40,16.30
2010,08,06,03,41,16.30
2010,08,06,03,42,16.20
2010,08,06,03,43,16.20
2010,08,06,03,44,16.20
2010,08,06,03,45,16.10
2010,08,06,03,46,16.10
2010,08,06,03,47,16.10
2010,08,06,03,48,16.10
2010,08,06,03,49,16.00
2010,08,06,03,50,16.00
2010,08,06,03,51,16.00
2010,08,06,03,52,16.00
2010,08,06,03,53,15.90
2010,08,06,03,54,15.90
2010,08,06,03,55,15.90
2010,08,06,03,56,15.80
2010,08,06,03,57,15.80
2010,08,06,03,58,15.80
2010,08,06,03,59,15.80
2010,08,06,04,00,15.70
2010,08,06,04,01,15.70
2010,08,06,04,02,15.70
2010,08,06,04,03,15.60
2010,08,06,04,04,15.60
2010,08,06,04,05,15.60
2010,08,06,04,06,15.50
2010,08,06,04,07,15.50
2010,08,06,04,08,15.50
2010,08,06,04,09,15.40
2010,08,06,04,10,15.40
2010,08,06,04,11,15.50
2010,08,06,04,12,15.50
2010,08,06,04,13,15.50
2010,08,06,04,14,15.50
2010,08,06,04,15,15.50
2010,08,06,04,16,15.50
2010,08,06,04,17,15.40
2010,08,06,04,18,15.40
2010,08,06,04,19,15.40
2010,08,06,04,20,15.40
2010,08,06,04,21,15.30
2010,08,06,04,22,15.30
2010,08,06,04,23,15.30
2010,08,06,04,24,15.30
2010,08,06,04,25,15.20
2010,08,06,04,26,15.10
2010,08,06,04,27,15.10
2010,08,06,04,28,15.00
2010,08,06,04,29,15.00
2010,08,06,04,30,15.00
2010,08,06,04,31,15.00
2010,08,06,04,32,15.00
2010,08,06,04,33,15.00
2010,08,06,04,34,15.00
2010,08,06,04,35,15.00
2010,08,06,04,36,15.00
2010,08,06,04,37,15.00
2010,08,06,04,38,14.90
2010,08,06,04,39,14.90
2010,08,06,04,40,14.80
2010,08,06,04,41,14.80
2010,08,06,04,42,14.80
2010,08,06,04,43,14.70
2010,08,06,04,44,14.70
2010,08,06,04,45,14.70
2010,08,06,04,46,14.70
2010,08,06,04,47,14.70
2010,08,06,04,48,14.70
2010,08,06,04,49,14.70
2010,08,06,04,50,14.70
2010,08,06,04,51,14.60
2010,08,06,04,52,14.60
2010,08,06,04,53,14.60
2010,08,06,04,54,14.60
2010,08,06,04,55,14.60
2010,08,06,04,56,14.60
2010,08,06,04,57,14.60
2010,08,06,04,58,14.60
2010,08,06,04,59,14.60
2010,08,06,05,00,14.60
2010,08,06,05,01,14.60
2010,08,06,05,02,14.60
2010,08,06,05,03,14.60
2010,08,06,05,04,14.60
2010,08,06,05,05,14.70
2010,08,06,05,06,14.70
2010,08,06,05,07,14.70
2010,08,06,05,08,14.70
2010,08,06,05,09,14.70
2010,08,06,05,10,14.70
2010,08,06,05,11,14.70
2010,08,06,05,12,14.70
2010,08,06,05,13,14.70
2010,08,06,05,14,14.80
2010,08,06,05,15,14.80
2010,08,06,05,16,14.80
2010,08,06,05,17,14.80
2010,08,06,05,18,14.80
2010,08,06,05,19,14.80
2010,08,06,05,20,14.80
2010,08,06,05,21,14.80
2010,08,06,05,22,14.80
2010,08,06,05,23,14.80
2010,08,06,05,24,14.90
2010,08,06,05,25,14.90
2010,08,06,05,26,14.90
2010,08,06,05,27,14.90
2010,08,06,05,28,14.90
2010,08,06,05,29,14.90
2010,08,06,05,30,14.90
2010,08,06,05,31,14.90
2010,08,06,05,32,14.80
2010,08,06,05,33,14.80
2010,08,06,05,34,14.80
2010,08,06,05,35,14.80
2010,08,06,05,36,14.80
2010,08,06,05,37,14.80
2010,08,06,05,38,14.80
2010,08,06,05,39,14.80
2010,08,06,05,40,14.80
2010,08,06,05,41,14.80
2010,08,06,05,42,14.80
2010,08,06,05,43,14.80
2010,08,06,05,44,14.80
2010,08,06,05,45,14.80
2010,08,06,05,46,14.80
2010,08,06,05,47,14.80
2010,08,06,05,48,14.80
2010,08,06,05,49,14.80
2010,08,06,05,50,14.80
2010,08,06,05,51,14.80
2010,08,06,05,52,14.80
2010,08,06,05,53,14.80
2010,08,06,05,54,14.80
2010,08,06,05,55,14.80
2010,08,06,05,56,14.80
2010,08,06,05,57,14.80
2010,08,06,05,58,14.70
2010,08,06,05,59,14.70
2010,08,06,06,00,14.70
2010,08,06,06,01,14.70
2010,08,06,06,02,14.70
2010,08,06,06,03,14.70
2010,08,06,06,04,14.70
2010,08,06,06,05,14.70
2010,08,06,06,06,14.70
2010,08,06,06,07,14.70
2010,08,06,06,08,14.70
2010,08,06,06,09,14.70
2010,08,06,06,10,14.70
2010,08,06,06,11,14.70
2010,08,06,06,12,14.60
2010,08,06,06,13,14.60
2010,08,06,06,14,14.60
2010,08,06,06,15,14.60
2010,08,06,06,16,14.60
2010,08,06,06,17,14.60
2010,08,06,06,18,14.60
2010,08,06,06,19,14.60
2010,08,06,06,20,14.60
2010,08,06,06,21,14.50
2010,08,06,06,22,14.50
2010,08,06,06,23,14.50
2010,08,06,06,24,14.50
2010,08,06,06,25,14.50
2010,08,06,06,26,14.50
2010,08,06,06,27,14.50
2010,08,06,06,28,14.50
2010,08,06,06,29,14.40
2010,08,06,06,30,14.40
2010,08,06,06,31,14.40
2010,08,06,06,32,14.40
2010,08,06,06,33,14.40
2010,08,06,06,34,14.40
2010,08,06,06,35,14.40
2010,08,06,06,36,14.40
2010,08,06,06,37,14.40
2010,08,06,06,38,14.40
2010,08,06,06,39,14.40
2010,08,06,06,40,14.40
2010,08,06,06,41,14.40
2010,08,06,06,42,14.40
2010,08,06,06,43,14.40
2010,08,06,06,44,14.40
2010,08,06,06,45,14.40
2010,08,06,06,46,14.40
2010,08,06,06,47,14.40
2010,08,06,06,48,14.40
2010,08,06,06,49,14.40
2010,08,06,06,50,14.50
2010,08,06,06,51,14.50
2010,08,06,06,52,14.50
2010,08,06,06,53,14.50
2010,08,06,06,54,14.50
2010,08,06,06,55,14.50
2010,08,06,06,56,14.60
2010,08,06,06,57,14.60
2010,08,06,06,58,14.60
2010,08,06,06,59,14.60
2010,08,06,07,00,14.60
2010,08,06,07,01,14.60
2010,08,06,07,02,14.60
2010,08,06,07,03,14.60
2010,08,06,07,04,14.60
2010,08,06,07,05,14.60
2010,08,06,07,06,14.60
2010,08,06,07,07,14.60
2010,08,06,07,08,14.60
2010,08,06,07,09,14.60
2010,08,06,07,10,14.60
2010,08,06,07,11,14.50
2010,08,06,07,12,14.50
2010,08,06,07,13,14.50
2010,08,06,07,14,14.50
2010,08,06,07,15,14.60
2010,08,06,07,16,14.60
2010,08,06,07,17,14.60
2010,08,06,07,18,14.60
2010,08,06,07,19,14.60
2010,08,06,07,20,14.60
2010,08,06,07,21,14.60
2010,08,06,07,22,14.60
2010,08,06,07,23,14.60
2010,08,06,07,24,14.70
2010,08,06,07,25,14.70
2010,08,06,07,26,14.70
2010,08,06,07,27,14.70
2010,08,06,07,28,14.70
2010,08,06,07,29,14.70
2010,08,06,07,30,14.70
2010,08,06,07,31,14.70
2010,08,06,07,32,14.70
2010,08,06,07,33,14.70
2010,08,06,07,34,14.70
2010,08,06,07,35,14.70
2010,08,06,07,36,14.70
2010,08,06,07,37,14.70
2010,08,06,07,38,14.70
2010,08,06,07,39,14.70
2010,08,06,07,40,14.70
2010,08,06,07,41,14.70
2010,08,06,07,42,14.70
2010,08,06,07,43,14.70
2010,08,06,07,44,14.70
2010,08,06,07,45,14.70
2010,08,06,07,46,14.70
2010,08,06,07,47,14.80
2010,08,06,07,48,14.80
2010,08,06,07,49,14.80
2010,08,06,07,50,14.90
2010,08,06,07,51,15.00
2010,08,06,07,52,15.00
2010,08,06,07,53,15.00
2010,08,06,07,54,15.00
2010,08,06,07,55,15.00
2010,08,06,07,56,15.00
2010,08,06,07,57,15.00
2010,08,06,07,58,15.00
2010,08,06,07,59,15.00
2010,08,06,08,00,15.10
2010,08,06,08,01,15.10
2010,08,06,08,02,15.20
2010,08,06,08,03,15.20
2010,08,06,08,04,15.20
2010,08,06,08,05,15.30
2010,08,06,08,06,15.30
2010,08,06,08,07,15.30
2010,08,06,08,08,15.40
2010,08,06,08,09,15.50
2010,08,06,08,10,15.50
2010,08,06,08,11,15.60
2010,08,06,08,12,15.70
2010,08,06,08,13,15.70
2010,08,06,08,14,15.80
2010,08,06,08,15,15.80
2010,08,06,08,16,15.90
2010,08,06,08,17,15.90
2010,08,06,08,18,16.00
2010,08,06,08,19,16.00
2010,08,06,08,20,16.10
2010,08,06,08,21,16.10
2010,08,06,08,22,16.20
2010,08,06,08,23,16.20
2010,08,06,08,24,16.30
2010,08,06,08,25,16.30
2010,08,06,08,26,16.30
2010,08,06,08,27,16.40
2010,08,06,08,28,16.50
2010,08,06,08,29,16.50
2010,08,06,08,30,16.60
2010,08,06,08,31,16.70
2010,08,06,08,32,16.80
2010,08,06,08,33,16.90
2010,08,06,08,34,16.90
2010,08,06,08,35,17.00
2010,08,06,08,36,17.00
2010,08,06,08,37,16.90
2010,08,06,08,38,16.90
2010,08,06,08,39,16.90
2010,08,06,08,40,16.90
2010,08,06,08,41,16.90
2010,08,06,08,42,16.90
2010,08,06,08,43,16.80
2010,08,06,08,44,16.80
2010,08,06,08,45,16.80
2010,08,06,08,46,16.80
2010,08,06,08,47,16.90
2010,08,06,08,48,16.90
2010,08,06,08,49,16.90
2010,08,06,08,50,16.90
2010,08,06,08,51,16.90
2010,08,06,08,52,17.00
2010,08,06,08,53,17.00
2010,08,06,08,54,17.00
2010,08,06,08,55,17.00
2010,08,06,08,56,17.00
2010,08,06,08,57,17.10
2010,08,06,08,58,17.10
2010,08,06,08,59,17.10
2010,08,06,09,00,17.20
2010,08,06,09,01,17.20
2010,08,06,09,02,17.20
2010,08,06,09,03,17.30
2010,08,06,09,04,17.30
2010,08,06,09,05,17.40
2010,08,06,09,06,17.40
2010,08,06,09,07,17.50
2010,08,06,09,08,17.60
2010,08,06,09,09,17.60
2010,08,06,09,10,17.70
2010,08,06,09,11,17.70
2010,08,06,09,12,17.70
2010,08,06,09,13,17.60
2010,08,06,09,14,17.50
2010,08,06,09,15,17.40
2010,08,06,09,16,17.20
2010,08,06,09,17,17.00
2010,08,06,09,18,16.90
2010,08,06,09,19,16.80
2010,08,06,09,20,16.80
2010,08,06,09,21,16.70
2010,08,06,09,22,16.60
2010,08,06,09,23,16.70
2010,08,06,09,24,16.70
2010,08,06,09,25,16.70
2010,08,06,09,26,16.80
2010,08,06,09,27,16.80
2010,08,06,09,28,16.90
2010,08,06,09,29,17.00
2010,08,06,09,30,17.00
2010,08,06,09,31,17.00
2010,08,06,09,32,17.00
2010,08,06,09,33,17.10
2010,08,06,09,34,17.10
2010,08,06,09,35,17.20
2010,08,06,09,36,17.20
2010,08,06,09,37,17.20
2010,08,06,09,38,17.20
2010,08,06,09,39,17.20
2010,08,06,09,40,17.20
2010,08,06,09,41,17.20
2010,08,06,09,42,17.20
2010,08,06,09,43,17.20
2010,08,06,09,44,17.10
2010,08,06,09,45,17.10
2010,08,06,09,46,17.10
2010,08,06,09,47,17.20
2010,08,06,09,48,17.10
2010,08,06,09,49,17.10
2010,08,06,09,50,17.10
2010,08,06,09,51,17.10
2010,08,06,09,52,17.00
2010,08,06,09,53,17.00
2010,08,06,09,54,17.00
2010,08,06,09,55,17.00
2010,08,06,09,56,17.00
2010,08,06,09,57,17.00
2010,08,06,09,58,17.10
2010,08,06,09,59,17.10
2010,08,06,10,00,17.10
2010,08,06,10,01,17.10
2010,08,06,10,02,17.10
2010,08,06,10,03,17.20
2010,08,06,10,04,17.20
2010,08,06,10,05,17.20
2010,08,06,10,06,17.30
2010,08,06,10,07,17.30
2010,08,06,10,08,17.30
2010,08,06,10,09,17.30
2010,08,06,10,10,17.40
2010,08,06,10,11,17.50
2010,08,06,10,12,17.60
2010,08,06,10,13,17.70
2010,08,06,10,14,17.80
2010,08,06,10,15,17.90
2010,08,06,10,16,17.90
2010,08,06,10,17,18.00
2010,08,06,10,18,18.10
2010,08,06,10,19,18.20
2010,08,06,10,20,18.20
2010,08,06,10,21,18.20
2010,08,06,10,22,18.30
2010,08,06,10,23,18.30
2010,08,06,10,24,18.30
2010,08,06,10,25,18.30
2010,08,06,10,26,18.20
2010,08,06,10,27,18.20
2010,08,06,10,28,18.20
2010,08,06,10,29,18.20
2010,08,06,10,30,18.10
2010,08,06,10,31,18.20
2010,08,06,10,32,18.20
2010,08,06,10,33,18.20
2010,08,06,10,34,18.20
2010,08,06,10,35,18.20
2010,08,06,10,36,18.20
2010,08,06,10,37,18.20
2010,08,06,10,38,18.30
2010,08,06,10,39,18.30
2010,08,06,10,40,18.40
2010,08,06,10,41,18.40
2010,08,06,10,42,18.40
2010,08,06,10,43,18.40
2010,08,06,10,44,18.40
2010,08,06,10,45,18.40
2010,08,06,10,46,18.40
2010,08,06,10,47,18.30
2010,08,06,10,48,18.30
2010,08,06,10,49,18.30
2010,08,06,10,50,18.20
2010,08,06,10,51,18.20
2010,08,06,10,52,18.20
2010,08,06,10,53,18.30
2010,08,06,10,54,18.30
2010,08,06,10,55,18.40
2010,08,06,10,56,18.40
2010,08,06,10,57,18.40
2010,08,06,10,58,18.40
2010,08,06,10,59,18.40
2010,08,06,11,00,18.40
2010,08,06,11,01,18.40
2010,08,06,11,02,18.40
2010,08,06,11,03,18.40
2010,08,06,11,04,18.40
2010,08,06,11,05,18.40
2010,08,06,11,06,18.40
2010,08,06,11,07,18.40
2010,08,06,11,08,18.20
2010,08,06,11,09,18.20
2010,08,06,11,10,18.10
2010,08,06,11,11,18.10
2010,08,06,11,12,18.20
2010,08,06,11,13,18.30
2010,08,06,11,14,18.20
2010,08,06,11,15,18.20
2010,08,06,11,16,18.20
2010,08,06,11,17,18.20
2010,08,06,11,18,18.10
2010,08,06,11,19,18.20
2010,08,06,11,20,18.20
2010,08,06,11,21,18.30
2010,08,06,11,22,18.40
2010,08,06,11,23,18.40
2010,08,06,11,24,18.40
2010,08,06,11,25,18.40
2010,08,06,11,26,18.50
2010,08,06,11,27,18.50
2010,08,06,11,28,18.50
2010,08,06,11,29,18.50
2010,08,06,11,30,18.50
2010,08,06,11,31,18.40
2010,08,06,11,32,18.40
2010,08,06,11,33,18.30
2010,08,06,11,34,18.20
2010,08,06,11,35,18.30
2010,08,06,11,36,18.30
2010,08,06,11,37,18.40
2010,08,06,11,38,18.50
2010,08,06,11,39,18.60
2010,08,06,11,40,18.70
2010,08,06,11,41,18.80
2010,08,06,11,42,18.80
2010,08,06,11,43,18.80
2010,08,06,11,44,18.90
2010,08,06,11,45,18.90
2010,08,06,11,46,18.70
2010,08,06,11,47,18.60
2010,08,06,11,48,18.50
2010,08,06,11,49,18.40
2010,08,06,11,50,18.30
2010,08,06,11,51,18.20
2010,08,06,11,52,18.20
2010,08,06,11,53,18.20
2010,08,06,11,54,18.20
2010,08,06,11,55,18.20
2010,08,06,11,56,18.30
2010,08,06,11,57,18.40
2010,08,06,11,58,18.50
2010,08,06,11,59,18.50
2010,08,06,12,00,18.50
2010,08,06,12,01,18.50
2010,08,06,12,02,18.40
2010,08,06,12,03,18.50
2010,08,06,12,04,18.50
2010,08,06,12,05,18.50
2010,08,06,12,06,18.40
2010,08,06,12,07,18.50
2010,08,06,12,08,18.60
2010,08,06,12,09,18.60
2010,08,06,12,10,18.70
2010,08,06,12,11,18.80
2010,08,06,12,12,18.90
2010,08,06,12,13,18.90
2010,08,06,12,14,18.90
2010,08,06,12,15,18.70
2010,08,06,12,16,18.70
2010,08,06,12,17,18.50
2010,08,06,12,18,18.40
2010,08,06,12,19,18.30
2010,08,06,12,20,18.20
2010,08,06,12,21,18.10
2010,08,06,12,22,18.00
2010,08,06,12,23,18.00
2010,08,06,12,24,18.00
2010,08,06,12,25,18.00
2010,08,06,12,26,18.00
2010,08,06,12,27,18.10
2010,08,06,12,28,18.20
2010,08,06,12,29,18.40
2010,08,06,12,30,18.50
2010,08,06,12,31,18.50
2010,08,06,12,32,18.60
2010,08,06,12,33,18.50
2010,08,06,12,34,18.30
2010,08,06,12,35,18.10
2010,08,06,12,36,17.90
2010,08,06,12,37,17.70
2010,08,06,12,38,17.60
2010,08,06,12,39,17.60
2010,08,06,12,40,17.60
2010,08,06,12,41,17.60
2010,08,06,12,42,17.70
2010,08,06,12,43,17.80
2010,08,06,12,44,17.80
2010,08,06,12,45,17.90
2010,08,06,12,46,17.80
2010,08,06,12,47,17.80
2010,08,06,12,48,17.70
2010,08,06,12,49,17.60
2010,08,06,12,50,17.60
2010,08,06,12,51,17.60
2010,08,06,12,52,17.60
2010,08,06,12,53,17.60
2010,08,06,12,54,17.60
2010,08,06,12,55,17.60
2010,08,06,12,56,17.60
2010,08,06,12,57,17.50
2010,08,06,12,58,17.50
2010,08,06,12,59,17.50
2010,08,06,13,00,17.50
2010,08,06,13,01,17.40
2010,08,06,13,02,17.40
2010,08,06,13,03,17.40
2010,08,06,13,04,17.40
2010,08,06,13,05,17.50
2010,08,06,13,06,17.60
2010,08,06,13,07,17.60
2010,08,06,13,08,17.50
2010,08,06,13,09,17.40
2010,08,06,13,10,17.40
2010,08,06,13,11,17.30
2010,08,06,13,12,17.20
2010,08,06,13,13,17.10
2010,08,06,13,14,16.90
2010,08,06,13,15,17.00
2010,08,06,13,16,17.00
2010,08,06,13,17,17.00
2010,08,06,13,18,17.00
2010,08,06,13,19,17.00
2010,08,06,13,20,17.00
2010,08,06,13,21,17.10
2010,08,06,13,22,17.10
2010,08,06,13,23,17.10
2010,08,06,13,24,17.20
2010,08,06,13,25,17.30
2010,08,06,13,26,17.40
2010,08,06,13,27,17.40
2010,08,06,13,28,17.40
2010,08,06,13,29,17.30
2010,08,06,13,30,17.20
2010,08,06,13,31,17.20
2010,08,06,13,32,17.20
2010,08,06,13,33,17.10
2010,08,06,13,34,17.10
2010,08,06,13,35,17.20
2010,08,06,13,36,17.20
2010,08,06,13,37,17.20
2010,08,06,13,38,17.20
2010,08,06,13,39,17.20
2010,08,06,13,40,17.20
2010,08,06,13,41,17.20
2010,08,06,13,42,17.30
2010,08,06,13,43,17.40
2010,08,06,13,44,17.40
2010,08,06,13,45,17.50
2010,08,06,13,46,17.60
2010,08,06,13,47,17.60
2010,08,06,13,48,17.50
2010,08,06,13,49,17.50
2010,08,06,13,50,17.50
2010,08,06,13,51,17.60
2010,08,06,13,52,17.70
2010,08,06,13,53,17.70
2010,08,06,13,54,17.70
2010,08,06,13,55,17.80
2010,08,06,13,56,17.80
2010,08,06,13,57,17.80
2010,08,06,13,58,17.80
2010,08,06,13,59,18.00
2010,08,06,14,00,18.10
2010,08,06,14,01,18.10
2010,08,06,14,02,18.10
2010,08,06,14,03,18.10
2010,08,06,14,04,18.00
2010,08,06,14,05,18.10
2010,08,06,14,06,18.20
2010,08,06,14,07,18.40
2010,08,06,14,08,18.50
2010,08,06,14,09,18.60
2010,08,06,14,10,18.70
2010,08,06,14,11,18.80
2010,08,06,14,12,18.90
2010,08,06,14,13,18.90
2010,08,06,14,14,19.00
2010,08,06,14,15,19.10
2010,08,06,14,16,19.20
2010,08,06,14,17,19.20
2010,08,06,14,18,19.00
2010,08,06,14,19,18.90
2010,08,06,14,20,19.00
2010,08,06,14,21,19.10
2010,08,06,14,22,19.20
2010,08,06,14,23,19.30
2010,08,06,14,24,19.40
2010,08,06,14,25,19.50
2010,08,06,14,26,19.70
2010,08,06,14,27,19.80
2010,08,06,14,28,20.00
2010,08,06,14,29,20.10
2010,08,06,14,30,20.10
2010,08,06,14,31,20.10
2010,08,06,14,32,20.10
2010,08,06,14,33,20.10
2010,08,06,14,34,20.10
2010,08,06,14,35,20.00
2010,08,06,14,36,19.90
2010,08,06,14,37,19.80
2010,08,06,14,38,19.80
2010,08,06,14,39,19.70
2010,08,06,14,40,19.60
2010,08,06,14,41,19.50
2010,08,06,14,42,19.40
2010,08,06,14,43,19.40
2010,08,06,14,44,19.40
2010,08,06,14,45,19.40
2010,08,06,14,46,19.50
2010,08,06,14,47,19.60
2010,08,06,14,48,19.60
2010,08,06,14,49,19.70
2010,08,06,14,50,19.80
2010,08,06,14,51,19.80
2010,08,06,14,52,19.90
2010,08,06,14,53,19.90
2010,08,06,14,54,19.90
2010,08,06,14,55,19.90
2010,08,06,14,56,20.00
2010,08,06,14,57,20.10
2010,08,06,14,58,20.20
2010,08,06,14,59,20.20
2010,08,06,15,00,20.30
2010,08,06,15,01,20.30
2010,08,06,15,02,20.40
2010,08,06,15,03,20.60
2010,08,06,15,04,20.70
2010,08,06,15,05,20.70
2010,08,06,15,06,20.60
2010,08,06,15,07,20.50
2010,08,06,15,08,20.30
2010,08,06,15,09,20.10
2010,08,06,15,10,20.00
2010,08,06,15,11,19.90
2010,08,06,15,12,19.90
2010,08,06,15,13,19.90
2010,08,06,15,14,19.90
2010,08,06,15,15,20.10
2010,08,06,15,16,20.20
2010,08,06,15,17,20.20
2010,08,06,15,18,20.00
2010,08,06,15,19,19.90
2010,08,06,15,20,19.60
2010,08,06,15,21,19.30
2010,08,06,15,22,18.90
2010,08,06,15,23,18.70
2010,08,06,15,24,18.70
2010,08,06,15,25,18.60
2010,08,06,15,26,18.60
2010,08,06,15,27,18.70
2010,08,06,15,28,18.70
2010,08,06,15,29,18.70
2010,08,06,15,30,18.60
2010,08,06,15,31,18.50
2010,08,06,15,32,18.50
2010,08,06,15,33,18.60
2010,08,06,15,34,18.70
2010,08,06,15,35,18.80
2010,08,06,15,36,18.80
2010,08,06,15,37,18.70
2010,08,06,15,38,18.50
2010,08,06,15,39,18.30
2010,08,06,15,40,18.30
2010,08,06,15,41,18.20
2010,08,06,15,42,18.20
2010,08,06,15,43,18.20
2010,08,06,15,44,18.20
2010,08,06,15,45,18.20
2010,08,06,15,46,18.20
2010,08,06,15,47,18.10
2010,08,06,15,48,18.00
2010,08,06,15,49,17.90
2010,08,06,15,50,17.90
2010,08,06,15,51,18.00
2010,08,06,15,52,18.00
2010,08,06,15,53,18.10
2010,08,06,15,54,18.10
2010,08,06,15,55,18.20
2010,08,06,15,56,18.20
2010,08,06,15,57,18.20
2010,08,06,15,58,18.10
2010,08,06,15,59,18.10
2010,08,06,16,00,18.00
2010,08,06,16,01,17.90
2010,08,06,16,02,17.80
2010,08,06,16,03,17.70
2010,08,06,16,04,17.80
2010,08,06,16,05,17.70
2010,08,06,16,06,17.60
2010,08,06,16,07,17.60
2010,08,06,16,08,17.50
2010,08,06,16,09,17.50
2010,08,06,16,10,17.50
2010,08,06,16,11,17.60
2010,08,06,16,12,17.60
2010,08,06,16,13,17.70
2010,08,06,16,14,17.80
2010,08,06,16,15,17.80
2010,08,06,16,16,18.00
2010,08,06,16,17,18.10
2010,08,06,16,18,18.10
2010,08,06,16,19,18.10
2010,08,06,16,20,18.00
2010,08,06,16,21,18.00
2010,08,06,16,22,17.90
2010,08,06,16,23,17.80
2010,08,06,16,24,17.70
2010,08,06,16,25,17.60
2010,08,06,16,26,17.50
2010,08,06,16,27,17.40
2010,08,06,16,28,17.40
2010,08,06,16,29,17.30
2010,08,06,16,30,17.20
2010,08,06,16,31,17.20
2010,08,06,16,32,17.30
2010,08,06,16,33,17.40
2010,08,06,16,34,17.50
2010,08,06,16,35,17.60
2010,08,06,16,36,17.70
2010,08,06,16,37,17.70
2010,08,06,16,38,17.70
2010,08,06,16,39,17.60
2010,08,06,16,40,17.60
2010,08,06,16,41,17.50
2010,08,06,16,42,17.50
2010,08,06,16,43,17.50
2010,08,06,16,44,17.40
2010,08,06,16,45,17.40
2010,08,06,16,46,17.40
2010,08,06,16,47,17.40
2010,08,06,16,48,17.30
2010,08,06,16,49,17.20
2010,08,06,16,50,17.20
2010,08,06,16,51,17.20
2010,08,06,16,52,17.10
2010,08,06,16,53,17.10
2010,08,06,16,54,17.00
2010,08,06,16,55,16.90
2010,08,06,16,56,16.90
2010,08,06,16,57,16.90
2010,08,06,16,58,17.00
2010,08,06,16,59,17.20
2010,08,06,17,00,17.20
2010,08,06,17,01,17.30
2010,08,06,17,02,17.30
2010,08,06,17,03,17.40
2010,08,06,17,04,17.40
2010,08,06,17,05,17.40
2010,08,06,17,06,17.40
2010,08,06,17,07,17.30
2010,08,06,17,08,17.40
2010,08,06,17,09,17.50
2010,08,06,17,10,17.50
2010,08,06,17,11,17.60
2010,08,06,17,12,17.70
2010,08,06,17,13,17.80
2010,08,06,17,14,17.80
2010,08,06,17,15,17.80
2010,08,06,17,16,17.90
2010,08,06,17,17,18.00
2010,08,06,17,18,18.10
2010,08,06,17,19,18.10